[[{"header":{"parameterUnit":"m.s-1","parameterCategory":1,"la1":30.2991,"la2":30.254,"lo1":-89.0895,"lo2":-89.0444,"dy":0.0017,"dx":0.0017,"nx":28,"ny":28,"refTime":"2025-07-20T03:00:00:Z","depth":0,"parameterNumber":2,"parameterNumberName":"U-component_of_WINDS"},"data":[0,0,0,0,0,0,0,0,0,0,0,0,0,0,0,0,0,0,0,0,0,0,0,0,0,0,0,0,0,0,0,0,0,0,0,0,0,0,0,0,0,0,0,0,0,0,0,0,0,0,0,0,0,0,0,0,0,0,1.826,1.8261,0,1.8402,1.8403,1.8405,1.8449,1.8449,1.8448,1.8447,1.8591,1.8595,1.86,0,0,0,0,0,0,0,0,0,0,0,0,0,1.8024,1.8028,1.8259,1.8261,1.8263,1.8401,1.8403,1.8405,1.8449,1.8449,1.8448,1.8447,1.8589,1.8595,1.86,0,0,0,0,0,0,0,0,0,0,0,0,0,1.8142,1.803,1.8259,1.8302,1.8307,1.8401,1.8403,1.8406,1.845,1.8449,1.8448,1.8447,1.8588,1.8594,1.8601,1.8662,0,0,1.8621,1.8624,0,0,0,0,0,0,0,0,1.8135,1.8151,1.8294,1.8299,1.8305,1.8407,1.8373,1.8492,1.845,1.8395,1.8447,1.8446,1.853,1.8542,1.857,1.8669,1.8675,1.8622,1.8626,1.8629,1.8631,0,0,0,0,0,0,0,1.8127,1.8145,1.8316,1.8296,1.8303,1.8313,1.8329,1.8396,1.8467,1.84,1.8404,1.842,1.8533,1.8564,1.8574,1.8677,1.8622,1.8627,1.8632,1.8634,1.8831,1.8832,0,0,0,0,0,0,1.8112,1.8138,1.8311,1.832,1.8216,1.8318,1.8336,1.8375,1.8466,1.8479,1.8421,1.8421,1.8553,1.8566,1.8579,1.8656,1.8629,1.8635,1.8639,1.883,1.8832,1.8833,0,0,0,0,0,0,1.8107,1.8127,1.8305,1.823,1.8253,1.8323,1.8367,1.8378,1.8409,1.8482,1.8494,1.8439,1.8553,1.857,1.8641,1.8662,1.8638,1.8644,1.8829,1.8831,1.8832,1.8811,0,0,0,0,0,0,1.81,1.8125,1.815,1.823,1.8257,1.8365,1.8369,1.8382,1.8421,1.8423,1.8502,1.8514,1.8553,1.8631,1.8648,1.8671,1.8649,1.8827,1.8829,1.8832,1.881,1.8812,1.8813,0,0,0,0,0,1.8091,1.8138,1.8151,1.8171,1.829,1.8366,1.8382,1.8426,1.8422,1.8447,1.8493,1.8512,1.8657,1.8638,1.8657,1.8682,1.8826,1.8829,1.8831,1.8809,1.8811,1.8813,0,0,0,0,0,0,1.8057,1.8149,1.8164,1.8238,1.8294,1.8374,1.8406,1.8427,1.8485,1.8485,1.8536,1.8554,1.8621,1.8659,1.8636,1.8746,1.8742,1.8749,1.8718,1.8721,1.8723,1.8712,1.8655,0,0,0,0,0,1.8058,1.8114,1.8191,1.8248,1.8276,1.8336,1.8371,1.8401,1.846,1.8484,1.8536,1.8592,1.8651,1.8688,1.8746,1.8816,1.8833,1.8842,1.8844,1.8845,1.885,1.8889,1.8894,1.8842,1.8842,1.8842,0,0,1.8061,1.8118,1.815,1.8243,1.829,1.8345,1.8356,1.8414,1.8456,1.8493,1.8563,1.8603,1.8669,1.874,1.8773,1.8773,1.8868,1.8849,1.8849,1.8854,1.8892,1.8897,1.8901,1.8844,1.8844,1.8843,0,0,1.8094,1.8143,1.8196,1.8243,1.8314,1.8354,1.8366,1.8443,1.8471,1.8542,1.8571,1.8621,1.872,1.8766,1.8803,1.8853,1.8871,1.887,1.8878,1.8915,1.8919,1.8923,1.894,1.8946,1.8875,1.8875,1.8875,0,1.8088,1.8174,1.8221,1.8278,1.8318,1.8354,1.8408,1.8451,1.8536,1.8562,1.8561,1.8687,1.8734,1.8815,1.8827,1.8856,1.8871,1.8861,1.8915,1.8919,1.8924,1.894,1.8947,1.8874,1.8874,1.8874,1.8874,0,1.8163,1.8221,1.8256,1.8338,1.8382,1.8436,1.8491,1.8529,1.8554,1.8594,1.8665,1.8724,1.8793,1.8815,1.884,1.8899,1.8897,1.8905,1.8902,1.8927,1.8944,1.895,1.8873,1.8873,1.8874,1.8874,0,0,1.8178,1.8286,1.8298,1.8335,1.8416,1.8462,1.8518,1.8586,1.8618,1.8675,1.8723,1.8806,1.8814,1.8855,1.8885,1.8918,1.8953,1.8922,1.8924,1.8925,1.9021,1.9014,1.902,1.8966,1.8967,1.8968,1.9015,0,1.8221,1.8324,1.8367,1.8449,1.8504,1.8539,1.8588,1.8642,1.868,1.8731,1.8773,1.8831,1.8837,1.8862,1.8896,1.8941,1.8972,1.8939,1.901,1.9012,1.8991,1.9029,1.9023,1.9064,1.9022,1.9023,1.9024,0,1.8285,1.8343,1.8431,1.8505,1.8529,1.8572,1.8638,1.8687,1.8748,1.8774,1.8819,1.8848,1.8907,1.8901,1.8983,1.8958,1.899,1.9017,1.9019,1.9027,1.9019,1.9038,1.9078,1.9084,1.9034,1.9034,1.9033,0,1.8286,1.8387,1.8452,1.8483,1.8571,1.86,1.8638,1.8699,1.8737,1.8795,1.882,1.8883,1.8917,1.8965,1.901,1.9002,1.9087,1.9085,1.9109,1.9108,1.9125,1.9124,1.9171,1.9147,1.9146,1.9146,1.9146,0,1.8329,1.8381,1.8454,1.8494,1.8553,1.8602,1.8659,1.8699,1.8753,1.88,1.8835,1.8879,1.8935,1.8986,1.9021,1.9083,1.9099,1.912,1.9129,1.9117,1.9114,1.9138,1.9136,1.9148,1.9148,1.9147,1.9147,0,1.8341,1.8392,1.8465,1.8542,1.8563,1.8603,1.8668,1.8708,1.8748,1.8807,1.8824,1.8886,1.8948,1.8997,1.9078,1.9101,1.9166,1.9176,1.9145,1.9149,1.9171,1.9168,1.9234,1.9245,1.9214,1.9214,1.9214,0,1.8365,1.8406,1.8487,1.8522,1.8559,1.8615,1.8654,1.8704,1.8743,1.8816,1.8847,1.8911,1.8965,1.9061,1.9113,1.9174,1.9185,1.9205,1.9195,1.9181,1.9185,1.9182,1.9186,1.9205,1.9205,1.9206,1.9206,0,1.8401,1.8424,1.848,1.8545,1.8591,1.8644,1.8697,1.8724,1.8783,1.8825,1.8889,1.893,1.9012,1.9075,1.9142,1.918,1.9202,1.9208,1.9217,1.9205,1.9185,1.9195,1.9147,1.9206,1.9206,1.9206,1.9206,1.9206,1.8419,1.8457,1.852,1.8581,1.8627,1.8676,1.8717,1.8762,1.8816,1.8887,1.8913,1.8978,1.9037,1.9129,1.9168,1.9218,1.922,1.9233,1.9237,1.9239,1.9237,1.9177,1.9231,1.9231,1.9231,1.9231,1.9231,0,1.8457,1.8499,1.8555,1.8629,1.8677,1.8694,1.8755,1.8793,1.885,1.8904,1.8956,1.9029,1.909,1.9146,1.9209,1.9239,1.9251,1.9254,1.9252,1.926,1.9232,1.9218,1.9243,1.9243,1.9243,1.9243,1.9243,1.9243,1.8482,1.8547,1.8577,1.8664,1.8706,1.8771,1.8803,1.8848,1.8892,1.8972,1.9023,1.9059,1.9114,1.9182,1.9238,1.9253,1.9274,1.9274,1.9292,1.9264,1.9262,1.9261,1.9247,1.9279,1.9279,1.9316,1.9316,1.9317]},{"header":{"parameterUnit":"m.s-1","parameterCategory":1,"la1":30.2991,"la2":30.254,"lo1":-89.0895,"lo2":-89.0444,"dy":0.0017,"dx":0.0017,"nx":28,"ny":28,"refTime":"2025-07-20T03:00:00:Z","depth":0,"parameterNumber":3,"parameterNumberName":"V-component_of_WINDS"},"data":[0,0,0,0,0,0,0,0,0,0,0,0,0,0,0,0,0,0,0,0,0,0,0,0,0,0,0,0,0,0,0,0,0,0,0,0,0,0,0,0,0,0,0,0,0,0,0,0,0,0,0,0,0,0,0,0,0,0,5.5659,5.5659,0,5.5624,5.5623,5.5623,5.554,5.5538,5.5536,5.5535,5.5501,5.5502,5.5503,0,0,0,0,0,0,0,0,0,0,0,0,0,5.5658,5.5658,5.5659,5.5659,5.5658,5.5624,5.5623,5.5623,5.554,5.5538,5.5536,5.5534,5.5501,5.5502,5.5503,0,0,0,0,0,0,0,0,0,0,0,0,0,5.5644,5.5659,5.5659,5.5613,5.5608,5.5624,5.5623,5.5623,5.554,5.5538,5.5535,5.5533,5.5501,5.5502,5.5503,5.5562,0,0,5.5506,5.5507,0,0,0,0,0,0,0,0,5.5645,5.5644,5.562,5.5616,5.5611,5.5583,5.5611,5.5602,5.5541,5.5566,5.5535,5.5531,5.5531,5.5529,5.5528,5.556,5.5559,5.5506,5.5507,5.5507,5.5508,0,0,0,0,0,0,0,5.5646,5.5646,5.5645,5.562,5.5614,5.5595,5.559,5.5609,5.5564,5.5564,5.5558,5.5555,5.5528,5.5528,5.5527,5.5558,5.5506,5.5507,5.5508,5.5508,5.5637,5.564,0,0,0,0,0,0,5.5654,5.5647,5.5646,5.5644,5.5622,5.5597,5.5591,5.5595,5.5563,5.5556,5.5557,5.5551,5.5527,5.5526,5.5526,5.5592,5.5507,5.5508,5.5509,5.5634,5.5638,5.5641,0,0,0,0,0,0,5.5654,5.5654,5.5648,5.5644,5.5641,5.56,5.5604,5.5596,5.5595,5.5558,5.555,5.5565,5.5525,5.5524,5.5553,5.559,5.5509,5.551,5.5631,5.5635,5.5639,5.5726,0,0,0,0,0,0,5.5654,5.5655,5.5676,5.5645,5.5642,5.5675,5.5607,5.5597,5.5597,5.5589,5.5563,5.5556,5.5523,5.5552,5.5554,5.559,5.5511,5.5627,5.5633,5.5638,5.572,5.5733,5.5744,0,0,0,0,0,5.5654,5.5703,5.5678,5.5678,5.5668,5.5678,5.5676,5.5636,5.56,5.5622,5.5598,5.5557,5.5586,5.5556,5.5558,5.5594,5.5625,5.5631,5.5637,5.5715,5.573,5.5744,0,0,0,0,0,0,5.574,5.5698,5.5669,5.5709,5.5697,5.5664,5.5689,5.5654,5.5653,5.5645,5.5596,5.5591,5.5627,5.5614,5.5581,5.565,5.5599,5.5606,5.5657,5.5672,5.5684,5.5686,5.5512,0,0,0,0,0,5.5763,5.5774,5.5737,5.5776,5.5771,5.5732,5.5734,5.5704,5.5691,5.5686,5.5664,5.5653,5.566,5.5665,5.5669,5.5718,5.5711,5.5744,5.5756,5.5766,5.5773,5.5798,5.5812,5.5661,5.5661,5.5661,0,0,5.5812,5.579,5.58,5.5792,5.578,5.5793,5.5728,5.5745,5.5754,5.5689,5.5714,5.5698,5.5683,5.5723,5.5739,5.5712,5.5813,5.5774,5.5783,5.5783,5.5806,5.582,5.5833,5.5665,5.5664,5.5664,0,0,5.5907,5.5892,5.5922,5.5911,5.5892,5.5866,5.5873,5.5845,5.5831,5.5856,5.5808,5.5819,5.5831,5.5822,5.582,5.5912,5.5875,5.5915,5.5978,5.6003,5.6015,5.6025,5.6058,5.607,5.5922,5.5922,5.5922,0,5.597,5.5986,5.5942,5.5962,5.596,5.5901,5.5931,5.5923,5.5908,5.5908,5.5879,5.5893,5.5879,5.5915,5.5938,5.5938,5.5945,5.5917,5.6016,5.6026,5.6035,5.6066,5.6078,5.5927,5.5926,5.5926,5.5925,0,5.6064,5.6077,5.6104,5.6089,5.6091,5.6116,5.6076,5.6083,5.6054,5.6031,5.6058,5.6038,5.6037,5.6044,5.6016,5.6077,5.6061,5.6025,5.5973,5.6055,5.6083,5.6095,5.5934,5.5932,5.5931,5.593,0,0,5.6211,5.6172,5.6183,5.6175,5.6151,5.6161,5.6184,5.6182,5.6189,5.6181,5.6199,5.6212,5.6178,5.6175,5.6145,5.6167,5.6242,5.6128,5.6127,5.615,5.6308,5.6335,5.6349,5.6217,5.6219,5.6221,5.6309,0,5.63,5.6335,5.6297,5.6341,5.6352,5.6297,5.6317,5.6305,5.6285,5.6292,5.627,5.6279,5.6234,5.6232,5.6251,5.6229,5.6273,5.6222,5.6234,5.6235,5.6239,5.6364,5.6392,5.6476,5.632,5.6322,5.6323,0,5.6407,5.6403,5.6449,5.6422,5.6425,5.6444,5.6439,5.6447,5.6433,5.6416,5.6414,5.6377,5.6399,5.6349,5.6379,5.6345,5.6348,5.6338,5.634,5.6339,5.6283,5.6365,5.6502,5.6514,5.634,5.6338,5.6337,0,5.6509,5.6515,5.6543,5.6539,5.6508,5.6523,5.6511,5.6494,5.6496,5.6493,5.6493,5.6493,5.6493,5.6494,5.6459,5.6426,5.6494,5.644,5.6481,5.6482,5.6497,5.6496,5.6635,5.65,5.65,5.65,5.65,0,5.6612,5.6642,5.6588,5.6605,5.6637,5.6593,5.6627,5.6609,5.6595,5.6608,5.6562,5.6575,5.6529,5.6538,5.6511,5.654,5.6541,5.6528,5.6521,5.6532,5.6534,5.6533,5.6526,5.6503,5.6502,5.6502,5.6501,0,5.673,5.6696,5.6722,5.6692,5.6685,5.671,5.6684,5.6699,5.6675,5.6693,5.6695,5.6659,5.6667,5.6633,5.6636,5.6618,5.666,5.6643,5.6665,5.6659,5.6701,5.6697,5.6843,5.686,5.6716,5.6718,5.6719,0,5.6797,5.6819,5.679,5.6795,5.6786,5.6795,5.6796,5.6754,5.6758,5.6744,5.6761,5.6765,5.6766,5.6783,5.6757,5.6759,5.6742,5.6793,5.6742,5.6753,5.6742,5.6741,5.6743,5.6803,5.6805,5.6806,5.6808,0,5.692,5.6902,5.6905,5.6903,5.6905,5.6901,5.6894,5.6902,5.6857,5.6863,5.6871,5.6872,5.6874,5.688,5.6877,5.6865,5.683,5.6824,5.6833,5.6845,5.6856,5.685,5.6693,5.6821,5.6819,5.6818,5.6818,5.6817,5.7014,5.7031,5.7013,5.7018,5.7009,5.7004,5.7016,5.6994,5.6999,5.6998,5.6973,5.6986,5.6972,5.6964,5.6957,5.6966,5.6943,5.6956,5.696,5.6963,5.697,5.6855,5.6966,5.6966,5.6965,5.6965,5.6964,0,5.7134,5.712,5.7125,5.7117,5.7121,5.7086,5.7077,5.7083,5.7095,5.7084,5.7086,5.7096,5.7101,5.7076,5.7078,5.709,5.7074,5.7092,5.7091,5.7089,5.6992,5.6983,5.7106,5.7106,5.7105,5.7105,5.7105,5.7105,5.7197,5.7223,5.7203,5.7224,5.721,5.7221,5.7219,5.7214,5.7205,5.7218,5.7221,5.7205,5.7189,5.7189,5.7193,5.7185,5.7188,5.7212,5.7199,5.7109,5.7095,5.7082,5.7074,5.7213,5.7213,5.7295,5.7296,5.7296]}]]